Dewpoint
48 47 48 49 49 49 50 49 47 47 49 49 50 50 49 49 51 45 31 40 51 58 58 56 55 56 55 53 50 47 42 40 40 40 41 46 47 52 54 54 55 56 53 54 57
48 47 48 48 49 49 50 49 47 47 49 50 50 50 50 50 47 40 45 53 51 59 55 54 53 55 52 51 49 45 42 41 42 41 42 42 45 51 52 54 54 56 55 55 59
49 47 47 48 49 49 49 49 48 48 49 49 50 50 50 49 31 30 52 53 56 57 57 56 56 55 52 50 47 45 43 43 42 42 41 40 43 50 51 52 53 54 54 56 58
49 48 48 48 48 48 49 49 49 49 49 50 49 50 49 45 2 31 51 47 53 56 53 52 51 50 49 48 48 44 44 43 44 44 40 40 42 47 51 51 53 55 54 56 56
49 49 48 49 49 49 49 49 49 49 49 49 49 50 45 31 27 35 46 45 48 49 49 49 46 44 44 47 49 46 45 44 44 45 44 43 40 40 46 51 54 55 54 56 56
53 52 50 50 49 49 50 49 49 49 49 49 49 49 40 19 32 37 41 43 41 42 38 49 48 47 45 46 47 48 47 45 44 44 42 39 39 40 41 53 55 54 53 56 56
54 54 53 51 50 49 50 50 49 49 49 49 49 46 40 27 39 41 42 41 41 39 38 48 50 46 45 44 48 48 46 47 46 44 43 43 41 40 42 55 54 55 53 54 56
54 54 54 53 51 50 50 49 49 49 49 49 50 42 28 35 39 42 44 40 41 44 48 49 50 47 45 46 43 44 46 41 44 45 45 43 40 41 50 54 54 55 54 53 55
54 54 53 52 51 50 49 49 49 49 49 49 42 38 26 36 36 37 38 36 42 44 46 49 48 42 43 40 37 39 36 38 40 44 44 43 41 43 52 53 53 54 54 54 53
54 53 53 51 50 49 49 48 46 45 44 45 43 31 26 24 34 37 37 40 39 42 39 41 42 37 39 37 27 30 33 36 38 41 43 42 42 43 52 53 53 54 54 54 53
53 53 52 50 48 48 44 38 34 27 35 31 30 31 31 34 37 32 35 37 41 39 32 34 32 29 31 35 38 36 35 35 38 39 41 41 41 43 47 52 53 53 54 54 55
53 53 51 48 48 47 41 38 38 40 32 34 35 36 36 37 34 34 40 35 35 31 34 32 29 29 34 37 35 35 34 33 35 39 40 39 38 38 43 48 52 52 53 54 54
53 53 50 48 46 42 41 40 44 42 30 27 30 33 35 36 35 33 35 36 32 31 32 31 28 32 31 31 31 32 32 34 34 38 40 39 36 36 40 46 51 54 54 54 54
53 51 49 47 40 39 39 44 44 35 13 14 19 31 32 33 30 35 37 34 35 31 32 31 32 31 31 30 31 28 33 36 36 35 30 38 30 37 40 43 45 51 54 54 54
52 50 48 44 39 38 41 44 37 28 -6 8 22 32 31 31 30 28 38 36 32 30 32 24 29 31 30 29 30 29 33 35 36 33 34 36 31 33 40 42 44 46 52 54 54
51 49 47 43 41 41 43 35 29 13 -9 14 24 28 26 28 29 32 32 37 37 33 32 30 33 32 31 33 34 35 35 35 35 33 27 31 33 30 35 36 43 45 50 53 52
51 48 44 42 37 42 35 29 14 4 13 13 23 27 25 26 27 29 28 29 26 24 19 27 28 34 35 31 35 34 33 26 24 26 22 32 32 28 35 35 39 44 49 53 49
47 44 42 40 40 38 31 21 -2 -7 0 20 27 23 21 24 27 27 27 25 27 32 28 23 16 32 35 31 30 32 32 26 20 22 22 33 31 34 40 42 43 43 50 47 46
45 38 38 38 39 35 27 7 6 3 18 26 23 9 10 21 24 25 22 24 30 33 27 26 24 30 35 35 34 33 28 36 27 26 24 29 35 38 41 43 47 47 45 44 44
37 35 35 38 36 31 21 13 15 21 29 27 19 12 13 10 20 21 19 22 28 33 34 31 25 27 35 38 36 32 35 30 31 15 18 26 32 32 33 36 45 44 44 42 42
35 29 34 36 33 27 13 7 19 27 30 27 23 22 19 21 20 13 17 23 30 29 31 34 32 23 29 33 32 32 31 33 33 29 22 22 29 34 34 36 39 42 40 39 40
32 20 35 33 22 5 11 15 26 25 29 30 29 26 24 24 16 17 20 24 28 33 28 34 30 25 23 34 36 35 32 33 29 28 30 28 29 37 37 39 38 37 37 37 38
26 25 33 31 12 11 12 24 25 24 25 28 27 29 30 26 22 18 22 28 29 33 30 34 27 20 19 27 35 34 35 35 35 33 29 26 30 36 37 38 37 36 37 38 37
28 19 24 26 21 18 11 16 21 26 25 26 27 29 26 25 27 22 25 28 29 30 34 34 31 27 22 27 32 31 33 34 34 29 30 30 31 33 35 35 35 36 37 37 36
27 16 18 16 23 22 23 21 22 18 25 26 26 27 24 22 19 20 24 25 26 30 28 33 26 30 29 31 31 31 32 33 32 34 30 32 33 34 35 36 36 37 37 36 36
26 23 25 24 24 24 21 19 22 18 24 25 25 24 26 25 23 23 25 24 23 27 25 28 27 28 25 31 29 27 29 33 33 33 34 35 33 35 36 35 36 36 36 36 36
27 27 25 27 25 23 19 20 23 25 24 25 25 25 24 25 26 27 28 29 28 27 26 26 26 24 21 28 25 20 23 31 33 32 33 32 32 37 37 35 35 36 36 36 36
Lifted_Index
14 14 14 14 14 14 14 15 15 16 15 15 15 15 15 15 15 15 15 14 11 9 9 8 7 6 5 4 4 4 4 4 4 3 3 2 2 1 1 0 -0 0 1 2 2
14 14 14 14 14 14 14 15 15 15 15 15 15 15 15 15 15 14 13 12 11 9 9 8 7 6 5 4 4 4 5 4 4 3 3 2 2 1 1 0 0 -0 0 1 2
13 14 14 14 14 14 14 15 15 15 15 15 15 15 15 15 15 14 13 12 11 10 9 8 8 7 6 5 4 4 5 4 3 3 3 2 2 2 1 1 0 -0 -0 1 1
13 14 14 14 14 14 14 14 14 15 14 14 14 15 15 15 15 15 15 14 12 11 10 9 9 8 7 6 5 5 5 4 4 3 3 3 2 2 1 1 0 -0 -0 -0 0
13 13 14 14 14 14 14 14 14 14 14 14 14 15 16 16 17 17 17 15 14 13 12 11 10 9 8 7 6 5 5 4 4 3 3 3 3 2 1 1 0 -0 -0 -0 -0
12 12 13 13 14 14 14 14 14 14 14 14 14 15 16 17 18 18 17 16 16 16 14 12 11 11 10 8 7 6 5 5 4 4 3 3 3 3 2 1 0 -0 -1 -1 -0
11 12 12 13 13 14 14 14 14 14 14 14 14 15 17 18 18 17 16 16 16 16 15 13 12 11 11 10 8 7 6 6 5 4 3 4 4 3 2 1 0 -0 -1 -0 -0
11 12 12 12 13 14 14 14 15 14 14 14 14 16 17 18 18 17 17 16 16 15 14 13 12 12 12 11 10 8 7 7 6 4 3 4 4 4 2 1 0 -1 -1 -0 -0
12 12 12 13 13 14 14 15 15 15 14 14 15 16 17 18 17 17 17 17 16 15 14 13 13 13 12 11 10 9 8 8 7 5 4 4 5 4 3 1 0 -1 -1 -1 -0
12 12 12 13 14 14 15 15 15 15 15 15 15 16 17 17 17 17 17 16 15 14 14 14 14 13 13 11 9 9 10 9 7 6 4 4 5 4 3 1 0 -0 -1 -1 -1
12 12 12 13 14 15 15 16 16 16 16 16 16 16 16 16 16 16 16 15 15 14 15 15 15 14 14 12 11 11 11 10 9 6 5 4 4 4 3 1 1 -0 -1 -1 -1
11 11 12 13 14 15 15 16 16 15 15 15 15 15 15 15 15 15 15 14 14 14 15 15 15 15 14 13 13 12 12 11 9 7 5 4 4 3 3 2 1 -0 -1 -1 -1
11 11 12 13 14 15 15 14 14 14 14 14 14 14 14 14 14 14 14 14 14 14 15 15 15 15 14 14 13 12 11 10 8 6 4 4 3 3 2 2 1 -0 -0 -1 -1
11 11 12 13 14 15 14 14 13 12 11 12 14 14 14 14 14 14 13 13 13 14 14 14 13 13 13 12 11 11 9 8 6 3 3 2 2 3 2 1 1 0 -0 -0 -1
11 12 12 13 14 14 14 13 13 11 9 10 13 13 13 13 13 13 12 12 12 12 12 10 9 8 8 7 7 7 5 4 2 1 1 2 2 3 2 2 1 1 1 0 0
11 12 12 13 13 14 13 13 12 9 8 9 11 11 11 11 11 11 10 10 9 9 8 6 5 4 4 3 3 3 2 1 1 0 0 1 2 2 3 2 2 2 1 1 0
11 12 12 13 13 13 13 12 10 8 9 10 10 10 10 9 9 8 8 7 6 5 4 3 2 2 2 2 1 1 0 0 0 0 0 0 1 2 3 2 2 2 1 1 1
12 12 12 13 13 13 13 11 9 9 9 9 9 8 7 6 6 5 5 4 3 2 2 1 1 1 1 1 1 1 0 0 0 0 0 0 0 1 2 2 2 2 2 1 1
12 12 12 13 13 13 12 10 9 9 9 8 7 6 5 4 4 4 3 3 2 2 1 1 1 1 1 1 1 1 1 0 0 -0 0 0 0 1 1 1 1 2 2 1 1
12 12 13 13 13 12 11 10 9 10 9 7 6 4 3 3 3 3 3 3 2 2 2 2 1 1 1 1 1 2 1 1 0 -0 -0 0 0 1 1 1 1 2 2 2 1
12 12 13 13 12 12 10 10 10 9 8 6 5 4 3 3 3 2 2 2 3 3 2 2 2 2 2 1 2 2 2 1 0 -0 -0 0 1 2 2 1 1 2 2 1 1
12 12 13 12 12 11 10 10 9 8 7 6 5 4 4 3 3 2 2 3 3 3 3 2 2 2 2 2 2 2 2 2 1 0 0 0 1 3 3 2 2 1 1 1 1
12 12 13 12 11 10 10 9 8 7 6 6 5 5 4 4 3 3 2 3 3 3 3 3 2 2 2 1 1 1 2 2 1 1 1 1 2 3 4 3 2 2 2 1 1
12 12 12 12 11 11 10 9 8 7 6 6 6 5 5 4 4 3 3 3 3 4 3 3 2 2 2 2 2 1 1 1 1 1 1 1 2 3 4 3 3 3 3 2 2
12 12 12 11 11 11 10 9 7 6 6 6 6 6 5 5 4 3 3 3 3 4 4 3 3 2 2 2 2 2 1 1 1 1 1 2 2 3 4 4 4 4 4 4 3
12 12 12 11 11 11 10 9 7 6 6 6 6 6 6 5 5 4 4 4 3 3 3 3 3 3 2 2 2 2 2 1 2 2 2 2 2 3 4 5 5 5 5 5 5
12 12 12 12 11 11 10 8 7 6 6 6 6 6 6 6 6 5 5 5 4 3 3 3 3 3 2 2 2 2 2 2 2 2 3 3 3 4 4 5 5 6 6 5 5